| time (UTC) | temp F | wind direction | speed knots | gust knots | rain 1hr in | rain 24hr in | rain mn in | humidity % | barometer mb |
| 20260508152634 | 66 | 0 | 3.5 | 9.6 | 0.00 | 0.00 | 0.00 | 23 | 1009.3 |
| 20260508150539 | 65 | 0 | 0.9 | 6.1 | 0.00 | 0.00 | 0.00 | 24 | 1009.6 |
| 20260508145511 | 64 | 0 | 0.9 | 9.6 | 0.00 | 0.00 | 0.00 | 25 | 1009.8 |
| 20260508144505 | 64 | 0 | 0.0 | 0.0 | 0.00 | 0.00 | 0.00 | 26 | 1009.8 |
| 20260508143449 | 63 | 0 | 0.0 | 7.0 | 0.00 | 0.00 | 0.00 | 25 | 1009.9 |
| 20260508141327 | 60 | 0 | 0.0 | 0.0 | 0.00 | 0.00 | 0.00 | 29 | 1010.0 |
| 20260508140344 | 59 | 0 | 0.0 | 0.0 | 0.00 | 0.00 | 0.00 | 30 | 1010.2 |
| 20260508135316 | 57 | 0 | 0.0 | 0.0 | 0.00 | 0.00 | 0.00 | 31 | 1010.2 |
| 20260508134305 | 55 | 0 | 0.0 | 0.0 | 0.00 | 0.00 | 0.00 | 35 | 1010.2 |
| 20260508132124 | 52 | 0 | 0.0 | 0.0 | 0.00 | 0.00 | 0.00 | 36 | 1010.2 |
| 20260508131107 | 49 | 0 | 0.0 | 0.0 | 0.00 | 0.00 | 0.00 | 39 | 1010.1 |
| 20260508130117 | 47 | 0 | 0.0 | 1.7 | 0.00 | 0.00 | 0.00 | 40 | 1010.1 |
| 20260508124002 | 46 | 332 | 0.0 | 0.0 | 0.00 | 0.00 | 0.00 | 40 | 1010.2 |
| 20260508121849 | 45 | 332 | 0.0 | 3.5 | 0.00 | 0.00 | 0.00 | 42 | 1010.2 |
| 20260508120904 | 44 | 332 | 0.0 | 0.9 | 0.00 | 0.00 | 0.00 | 43 | 1010.2 |
| 20260508115838 | 43 | 332 | 0.0 | 0.0 | 0.00 | 0.00 | 0.00 | 45 | 1010.3 |
| 20260508114811 | 42 | 332 | 0.0 | 0.0 | 0.00 | 0.00 | 0.00 | 45 | 1010.4 |
| 20260508113818 | 41 | 332 | 0.0 | 0.0 | 0.00 | 0.00 | 0.00 | 46 | 1010.3 |
| 20260508111725 | 42 | 332 | 0.0 | 0.0 | 0.00 | 0.00 | 0.00 | 45 | 1010.4 |
| 20260508110726 | 42 | 332 | 0.0 | 0.9 | 0.00 | 0.00 | 0.00 | 46 | 1010.4 |
| 20260508105732 | 42 | 332 | 0.0 | 0.0 | 0.00 | 0.00 | 0.00 | 46 | 1010.5 |
| 20260508104711 | 42 | 332 | 0.0 | 0.0 | 0.00 | 0.00 | 0.00 | 45 | 1010.5 |
| 20260508103654 | 42 | 332 | 0.0 | 3.5 | 0.00 | 0.00 | 0.00 | 44 | 1010.5 |
| 20260508102703 | 44 | 332 | 0.0 | 0.0 | 0.00 | 0.00 | 0.00 | 42 | 1010.6 |
| 20260508101715 | 44 | 332 | 0.0 | 0.0 | 0.00 | 0.00 | 0.00 | 43 | 1010.6 |
| 20260508100658 | 45 | 332 | 0.0 | 0.0 | 0.00 | 0.00 | 0.00 | 42 | 1010.7 |
| 20260508095700 | 44 | 332 | 0.0 | 0.0 | 0.00 | 0.00 | 0.00 | 42 | 1010.6 |
| 20260508094644 | 43 | 332 | 0.0 | 0.0 | 0.00 | 0.00 | 0.00 | 43 | 1010.6 |
| 20260508093654 | 43 | 332 | 0.0 | 0.0 | 0.00 | 0.00 | 0.00 | 44 | 1010.6 |
| 20260508092651 | 43 | 332 | 0.0 | 0.0 | 0.00 | 0.00 | 0.00 | 43 | 1010.6 |
| 20260508091712 | 43 | 332 | 0.0 | 0.0 | 0.00 | 0.00 | 0.00 | 42 | 1010.7 |
| 20260508090641 | 44 | 332 | 0.0 | 0.0 | 0.00 | 0.00 | 0.00 | 42 | 1010.7 |
| 20260508085637 | 44 | 332 | 0.0 | 0.0 | 0.00 | 0.00 | 0.00 | 41 | 1010.7 |
| 20260508084625 | 46 | 332 | 0.0 | 0.0 | 0.00 | 0.00 | 0.00 | 39 | 1010.9 |
| 20260508083610 | 47 | 332 | 0.0 | 0.0 | 0.00 | 0.00 | 0.00 | 38 | 1011.0 |
| 20260508082552 | 47 | 332 | 0.0 | 6.1 | 0.00 | 0.00 | 0.00 | 39 | 1011.1 |
| 20260508081553 | 47 | 0 | 0.0 | 4.3 | 0.00 | 0.00 | 0.00 | 39 | 1011.2 |
| 20260508080525 | 47 | 0 | 0.0 | 0.0 | 0.00 | 0.00 | 0.00 | 38 | 1011.3 |
| 20260508075541 | 47 | 0 | 0.0 | 4.3 | 0.00 | 0.00 | 0.00 | 38 | 1011.3 |
| 20260508074506 | 48 | 0 | 0.0 | 0.9 | 0.00 | 0.00 | 0.00 | 36 | 1011.4 |
| 20260508072339 | 49 | 0 | 0.0 | 0.9 | 0.00 | 0.00 | 0.00 | 35 | 1011.7 |
| 20260508071312 | 48 | 0 | 0.0 | 0.0 | 0.00 | 0.00 | 0.00 | 36 | 1011.7 |
| 20260508070302 | 46 | 0 | 0.0 | 0.0 | 0.00 | 0.00 | 0.00 | 37 | 1011.8 |
| 20260508065234 | 47 | 0 | 0.0 | 0.0 | 0.00 | 0.00 | 0.00 | 36 | 1011.9 |
| 20260508063132 | 51 | 0 | 0.0 | 0.0 | 0.00 | 0.00 | 0.00 | 33 | 1011.9 |
| 20260508062137 | 50 | 0 | 0.0 | 0.0 | 0.00 | 0.00 | 0.00 | 34 | 1011.9 |
| 20260508061122 | 50 | 0 | 0.0 | 0.0 | 0.00 | 0.00 | 0.00 | 34 | 1012.0 |
| 20260508060120 | 49 | 0 | 0.0 | 0.0 | 0.00 | 0.00 | 0.00 | 34 | 1012.0 |
| 20260508055058 | 49 | 0 | 0.0 | 0.0 | 0.00 | 0.00 | 0.00 | 34 | 1011.9 |
| 20260508054036 | 50 | 0 | 0.0 | 0.0 | 0.00 | 0.00 | 0.00 | 33 | 1011.9 |
| 20260508053017 | 50 | 0 | 0.0 | 0.0 | 0.00 | 0.00 | 0.00 | 33 | 1012.0 |
| 20260508050848 | 52 | 0 | 0.0 | 0.0 | 0.00 | 0.00 | 0.00 | 32 | 1012.2 |
| 20260508045827 | 52 | 0 | 0.0 | 0.0 | 0.00 | 0.00 | 0.00 | 31 | 1012.2 |
| 20260508044752 | 53 | 0 | 0.0 | 0.0 | 0.00 | 0.00 | 0.00 | 30 | 1012.3 |
| 20260508043735 | 53 | 0 | 0.0 | 0.0 | 0.00 | 0.00 | 0.00 | 30 | 1012.2 |
| 20260508042741 | 54 | 0 | 0.0 | 0.0 | 0.00 | 0.00 | 0.00 | 29 | 1012.2 |
| 20260508041734 | 55 | 0 | 0.0 | 0.9 | 0.00 | 0.00 | 0.00 | 29 | 1012.3 |
| 20260508035632 | 56 | 0 | 0.0 | 0.0 | 0.00 | 0.00 | 0.00 | 27 | 1012.2 |
| 20260508033513 | 57 | 0 | 0.0 | 6.1 | 0.00 | 0.00 | 0.00 | 27 | 1011.9 |
| 20260508032441 | 56 | 0 | 0.0 | 3.5 | 0.00 | 0.00 | 0.00 | 28 | 1011.8 |
| 20260508030319 | 55 | 0 | 0.0 | 0.0 | 0.00 | 0.00 | 0.00 | 27 | 1011.6 |
| 20260508025341 | 56 | 0 | 0.0 | 0.0 | 0.00 | 0.00 | 0.00 | 27 | 1011.6 |
| 20260508024407 | 56 | 0 | 0.0 | 0.0 | 0.00 | 0.00 | 0.00 | 26 | 1011.6 |
| 20260508023429 | 57 | 0 | 0.0 | 0.0 | 0.00 | 0.00 | 0.00 | 26 | 1011.4 |
| 20260508022442 | 58 | 0 | 0.0 | 0.0 | 0.00 | 0.00 | 0.00 | 25 | 1011.4 |
| 20260508021417 | 59 | 0 | 0.0 | 0.0 | 0.00 | 0.00 | 0.00 | 23 | 1011.4 |
| 20260508020442 | 60 | 0 | 0.0 | 0.0 | 0.00 | 0.00 | 0.00 | 23 | 1011.4 |
| 20260508015442 | 61 | 0 | 0.0 | 0.9 | 0.00 | 0.00 | 0.00 | 22 | 1011.4 |
| 20260508014430 | 62 | 0 | 0.9 | 10.4 | 0.00 | 0.00 | 0.00 | 22 | 1011.4 |
| 20260508011139 | 64 | 0 | 8.7 | 14.8 | 0.00 | 0.00 | 0.00 | 20 | 1011.1 |
| 20260508004937 | 67 | 0 | 8.7 | 14.8 | 0.00 | 0.00 | 0.00 | 19 | 1011.1 |
| 20260508003909 | 68 | 331 | 8.7 | 16.5 | 0.00 | 0.00 | 0.00 | 19 | 1011.1 |
| 20260508002854 | 68 | 0 | 7.0 | 17.4 | 0.00 | 0.00 | 0.00 | 19 | 1011.1 |
| 20260508001825 | 68 | 0 | 8.7 | 17.4 | 0.00 | 0.00 | 0.00 | 18 | 1011.3 |
| 20260508000839 | 68 | 0 | 6.1 | 15.6 | 0.00 | 0.00 | 0.00 | 18 | 1011.4 |
| 20260507235859 | 68 | 0 | 8.7 | 19.1 | 0.00 | 0.00 | 0.00 | 18 | 1011.5 |
| 20260507234843 | 69 | 0 | 7.8 | 20.0 | 0.00 | 0.00 | 0.00 | 18 | 1011.6 |
| 20260507233902 | 69 | 0 | 8.7 | 20.0 | 0.00 | 0.00 | 0.00 | 18 | 1011.5 |
| 20260507232842 | 69 | 331 | 7.0 | 19.1 | 0.00 | 0.00 | 0.00 | 17 | 1011.6 |
| 20260507231837 | 69 | 0 | 3.5 | 16.5 | 0.00 | 0.00 | 0.00 | 17 | 1011.7 |
| 20260507230827 | 69 | 0 | 7.8 | 16.5 | 0.00 | 0.00 | 0.00 | 17 | 1011.8 |
| 20260507225851 | 70 | 0 | 5.2 | 15.6 | 0.00 | 0.00 | 0.00 | 17 | 1012.0 |
| 20260507224834 | 70 | 0 | 3.5 | 13.0 | 0.00 | 0.00 | 0.00 | 17 | 1012.1 |
| 20260507223801 | 70 | 0 | 5.2 | 13.0 | 0.00 | 0.00 | 0.00 | 16 | 1012.2 |
| 20260507222817 | 69 | 333 | 3.5 | 0.9 | 0.00 | 0.00 | 0.00 | 17 | 1012.3 |
| 20260507220638 | 70 | 0 | 3.5 | 13.0 | 0.00 | 0.00 | 0.00 | 16 | 1012.7 |
| 20260507215640 | 69 | 229 | 5.2 | 12.2 | 0.00 | 0.00 | 0.00 | 16 | 1012.9 |
| 20260507214640 | 69 | 263 | 3.5 | 11.3 | 0.00 | 0.00 | 0.00 | 16 | 1013.1 |
| 20260507213659 | 69 | 0 | 3.5 | 9.6 | 0.00 | 0.00 | 0.00 | 15 | 1013.4 |
| 20260507211531 | 68 | 254 | 3.5 | 10.4 | 0.00 | 0.00 | 0.00 | 16 | 1013.9 |
| 20260507210522 | 68 | 228 | 2.6 | 15.6 | 0.00 | 0.00 | 0.00 | 16 | 1014.2 |
| 20260507205520 | 68 | 265 | 0.9 | 7.8 | 0.00 | 0.00 | 0.00 | 16 | 1014.5 |
| 20260507204449 | 68 | 233 | 2.6 | 10.4 | 0.00 | 0.00 | 0.00 | 16 | 1014.7 |
| 20260507203420 | 67 | 221 | 0.9 | 10.4 | 0.00 | 0.00 | 0.00 | 16 | 1014.8 |
| 20260507202427 | 67 | 225 | 0.0 | 2.6 | 0.00 | 0.00 | 0.00 | 15 | 1015.0 |
| 20260507200254 | 66 | 246 | 0.9 | 0.0 | 0.00 | 0.00 | 0.00 | 15 | 1015.6 |
| 20260507195252 | 67 | 248 | 3.5 | 0.0 | 0.00 | 0.00 | 0.00 | 15 | 1015.9 |
| 20260507194302 | 66 | 168 | 0.9 | 12.2 | 0.00 | 0.00 | 0.00 | 15 | 1015.9 |
| 20260507193243 | 65 | 229 | 3.5 | 27.8 | 0.00 | 0.00 | 0.00 | 14 | 1016.2 |
| 20260507192239 | 66 | 216 | 3.5 | 27.8 | 0.00 | 0.00 | 0.00 | 16 | 1016.3 |
| 20260507191240 | 65 | 179 | 3.5 | 9.6 | 0.00 | 0.00 | 0.00 | 15 | 1016.6 |
| 20260507190243 | 64 | 174 | 0.0 | 5.2 | 0.00 | 0.00 | 0.00 | 15 | 1016.8 |
| 20260507184143 | 62 | 230 | 0.9 | 11.3 | 0.00 | 0.00 | 0.00 | 15 | 1017.5 |
| 20260507182052 | 63 | 182 | 2.6 | 10.4 | 0.00 | 0.00 | 0.00 | 16 | 1017.7 |
| 20260507181108 | 61 | 178 | 2.6 | 9.6 | 0.00 | 0.00 | 0.00 | 16 | 1017.8 |
| 20260507180054 | 61 | 206 | 0.0 | 4.3 | 0.00 | 0.00 | 0.00 | 17 | 1018.2 |
| 20260507175116 | 60 | 213 | 0.9 | 2.6 | 0.00 | 0.00 | 0.00 | 16 | 1018.5 |
| 20260507171842 | 58 | 209 | 0.0 | 2.6 | 0.00 | 0.01 | 0.00 | 17 | 1019.0 |
| 20260507170837 | 58 | 186 | 0.0 | 2.6 | 0.00 | 0.01 | 0.00 | 19 | 1019.1 |
| 20260507165823 | 57 | 192 | 0.0 | 7.8 | 0.00 | 0.01 | 0.00 | 19 | 1019.2 |
| 20260507164803 | 58 | 186 | 0.0 | 0.0 | 0.00 | 0.01 | 0.00 | 20 | 1019.5 |
| 20260507163828 | 56 | 186 | 0.0 | 0.0 | 0.00 | 0.01 | 0.00 | 19 | 1019.6 |
| 20260507162754 | 55 | 209 | 0.0 | 0.0 | 0.00 | 0.01 | 0.00 | 19 | 1019.9 |
| 20260507161732 | 55 | 213 | 0.0 | 6.1 | 0.00 | 0.01 | 0.00 | 20 | 1020.0 |
| 20260507160718 | 55 | 214 | 0.0 | 0.0 | 0.00 | 0.01 | 0.00 | 20 | 1020.0 |
| 20260507155651 | 54 | 0 | 0.0 | 2.6 | 0.00 | 0.01 | 0.00 | 21 | 1020.0 |